Showing default

SPARK 2, 41901

Orbit data source: Space-Track

SPARK 2, 41901 is a payload satellite owned by SECM (CN) in SSO that was launched on Wed, 21 Dec 2016 UTC via a CHANG ZHENG 2D launch vehicle from the Jiuquan Satellite Launch Center, China (JSC). Payload-class satellites include a variety of spacecraft equipped with specific instruments for various scientific and technological missions. These include communications satellites like Starlink; space stations such as the ISS; scientific satellites like the Hubble; Earth observation satellites from companies like Planet Labs, Umbra, and HawkEye 360; GPS; miniature CubeSats for education and research; and military/defense satellites.

Loading next visibility...
Identifier
41901, 2016-081D
Orbit
SSO
Country
Flag of CNCN / PRC
Related business
Manufacturer
SECM
Mission
Operational Civil Imaging
Bus & Motor
SPARK, Unknown motor
Mass
43 kg wet, 43 kg dry
Launch date (UTC)
2016-12-21 (10 years ago)
Launch vehicle
CHANG ZHENG 2D
Launch site
Jiuquan Satellite Launch Center, China (JSC)
Object type
Payload
Rocket body
Debris
Shape & HBR
Box + 2 Pan, 0.5 m
Radar Cross Section
0.388 m², Medium (>0.1 m² and < 1m²)

Expand to show TLE details & history
Last TLE update: 7 hours ago

TLE from 7 hours ago
0 SPARK 2
1 41901U 16081D   26264.88688721  .00000351  00000-0  84706-4 0  9997
2 41901  98.5586 257.5804 0025903  28.7110 331.5508 14.59249080518222
Epoch: 2026-09-21T21:17Z
TLE epoch observation values (Epoch: 2026-09-21T21:17:07.054Z)
Latitude
-0.00007°
Longitude
-62.45926°
Altitude
682.47 km
Speed
7.524 km/s
True Right ascension
17h 10m 19s
True Declination
0° 00' 00"
Sunlit
Object was in daylight at epoch
Visualization orbit readout
Latitude
Unknown
Longitude
Unknown
Altitude
Unknown
Speed
Unknown
Apparent Right ascension
Unknown
Apparent Declination
Unknown
Sunlit
N/A
Visualization observer readout
Local Sidereal Time
21:42:52
Azimuth
Unknown
Elevation
Unknown
Doppler factor
Unknown
Orbital elements
Apogee altitude
711.014 km
Perigee altitude
674.383 km
Semi-major axis
7,070.836 km
Eccentricity
0.00259
Inclination
98.5586°
RAAN
257.5804°
Arg. of periapsis
28.711°
True anomaly
331.40899°
Mean anomaly
331.5508°
Eccentric anomaly
331.47994°
Mean motion
3.65037 °/min
Orbital period
98.62 mins
BSTAR
0.000084706
Loading maneuver chart data...
Computing Atmospheric mass density...
Loading historical data...
Loading historical data...
Loading historical data...
Loading historical data...
Loading historical data...
Loading historical data...
Loading historical data...
Other satellites on launch #81 in the year 2016 (2016-12-21 UTC)

Documentation

Showing up to 5 results
|